Regional Weather Roundup
Issued by NWS

Home | Current Version | Previous Version | Text Only | Print | Product List | Glossary Off
Versions: 1 2 3 4 5 6 7 8 9 10 11 12 13 14 15 16 17 18 19 20 21 22 23 24 25 26 27 28 29 30 31 32 33 34 35 36 37 38 39 40 41 42 43 44 45 46 47 48 49 50

000
ASUS43 KLSX 191107
RWRMO

WEATHER SUMMARY FOR MISSOURI
NATIONAL WEATHER SERVICE SPRINGFIELD MO
600 AM CDT SAT AUG 19 2017

NOTE: "FAIR" INDICATES FEW OR NO CLOUDS BELOW 12,000 FEET WITH NO
       SIGNIFICANT WEATHER AND/OR OBSTRUCTIONS TO VISIBILITY.
       CURRENT SKY AND/OR WEATHER CONDITIONS ARE NOT AVAILABLE FOR
       CHILLICOTHE AND FARMINGTON.

MOZ001>031-035>038-043-044-053-054-191200-
...NORTHERN AND WESTERN MISSOURI...

CITY           SKY/WX    TMP DP  RH WIND       PRES   REMARKS
KANSAS CTY INT CLEAR     69  66  90 N3        29.94R
KANSAS C DTWN  CLEAR     70  69  97 N3        29.93R
LEE`S SUMMIT   CLEAR     70  70 100 CALM      29.95R
ST JOSEPH      FOG       62  62 100 CALM      29.94S VSB<1/4
CHILLICOTHE      N/A     63  63 100 CALM      29.94S
KIRKSVILLE     PTCLDY    61  60  97 CALM      29.95R FOG

$$
MOZ066>068-077>081-088>096-101>105-191200-
...SOUTHWEST MISSOURI...

CITY           SKY/WX    TMP DP  RH WIND       PRES   REMARKS
SPRINGFIELD    CLEAR     68  67  96 S7        29.97S
JOPLIN         PTCLDY    74  73  97 S6        29.97S
BRANSON        CLEAR     68  68 100 CALM      30.01R

$$
MOZ032>034-039>042-045>050-055>058-069>072-191200-
...CENTRAL MISSOURI...

CITY           SKY/WX    TMP DP  RH WIND       PRES   REMARKS
COLUMBIA       CLEAR     67  66  97 W6        29.93S
JEFFERSON CITY CLEAR     70  69  97 CALM      29.93R
ROLLA          CLEAR     66  66 100 SW7       29.96S
SEDALIA        CLEAR     70  70 100 SW8       29.95S
WHITEMAN AFB   CLEAR     67  67 100 SW5       29.93S
WARRENSBURG    CLEAR     68  64  88 CALM      29.93S
OSAGE BEACH    CLEAR     67  66  97 CALM      29.95S

$$
MOZ051-052-059>065-191200-
...EAST CENTRAL MISSOURI...

CITY           SKY/WX    TMP DP  RH WIND       PRES   REMARKS
ST LOUIS INTL  PTCLDY    72  68  87 CALM      29.93R
SPIRIT OF STL  PTCLDY    67  67 100 CALM      29.92R
ST CHARLES     CLEAR     66  66 100 SW6       29.91R

$$
MOZ072>076-082>087-097>100-106>115-191200-
...SOUTH CENTRAL AND SOUTHEAST MISSOURI...

CITY           SKY/WX    TMP DP  RH WIND       PRES   REMARKS
CAPE GIRARDEAU PTCLDY    68  66  93 CALM      29.94R
FARMINGTON     CLEAR     67  66  97 CALM      29.96R
POPLAR BLUFF   CLEAR     68  68 100 CALM      29.94R
WEST PLAINS    CLEAR     68  67  96 W6        29.99S

$$



USA.gov is the U.S. government's official web portal to all federal, state and local government web resources and services.